sat.trackr.live / text

‹ back to catalog

STARLINK-1536

NORAD 46070 · 2020-055AV

PAYLOAD ACTIVE UNKNOWN

§ Identity

Operator
Country
US
Launch date
2020-08-07
Launch site
AFETR
Launch vehicle
Mass (kg)
RCS (m²)

Purposes: comms

External: N2YO · Heavens-Above · Gunter

§ Orbital elements

Epoch: 2026-05-25T04:22:52.434048Z

Period
94.01 min
Inclination
53.1598°
Eccentricity
0.0001082
Mean motion
15.31701457 rev/d
Perigee alt
470.0 km
Apogee alt
471.5 km
Semi-major
6,848.9 km
B*
3.1032e-5
RAAN
105.9971°
Arg perigee
89.6739°
Mean anomaly
270.4386°
Rev number
32,095

§ Raw data

STARLINK-15361 46070U 20055AV  26145.18255132  .00000598  00000+0  31032-4 0  99982 46070  53.1598 105.9971 0001082  89.6739 270.4386 15.31701457320958

JSON: /api/v1/satellites/46070 · /tle

For live sub-satellite position, see the globe view (requires WebGL).

§ Visibility from observer

Set your observer location to see the next 7 days of passes ≥ 10°. The values pass through the URL so the page stays shareable.

No JS? Fill the form by hand. The geolocation button needs JavaScript.